Time,TemperatureF,DewpointF,PressureIn,WindDirection,WindDirectionDegrees,WindSpeedMPH,WindSpeedGustMPH,Humidity,HourlyPrecipIn,Conditions,Clouds,dailyrainin,SoftwareType,DateUTC
2013-03-10 00:01:00,15.0,11.0,30.21,NW,323,0.0,0.0,82,0.00,,,0.00,,2013-03-10 07:01:00,
2013-03-10 00:11:00,15.0,11.0,30.20,NW,323,0.0,2.0,82,0.00,,,0.00,,2013-03-10 07:11:00,
2013-03-10 00:21:00,15.0,11.0,30.20,NW,323,0.0,2.0,82,0.00,,,0.00,,2013-03-10 07:21:00,
2013-03-10 00:31:00,15.0,11.0,30.20,NW,323,0.0,1.0,82,0.00,,,0.00,,2013-03-10 07:31:00,
2013-03-10 00:42:00,15.0,11.0,30.20,NW,323,2.0,3.0,83,0.00,,,0.00,,2013-03-10 07:42:00,
2013-03-10 00:52:00,15.0,11.0,30.20,NW,323,2.0,3.0,83,0.00,,,0.00,,2013-03-10 07:52:00,
2013-03-10 01:01:00,15.0,11.0,30.20,NW,323,2.0,3.0,83,0.00,,,0.00,,2013-03-10 08:01:00,
2013-03-10 01:11:00,15.0,11.0,30.20,NW,323,2.0,3.0,83,0.00,,,0.00,,2013-03-10 08:11:00,
2013-03-10 01:21:00,15.0,11.0,30.20,NW,323,2.0,3.0,83,0.00,,,0.00,,2013-03-10 08:21:00,
2013-03-10 01:31:00,13.0,9.0,30.21,NW,323,0.0,3.0,82,0.00,,,0.00,,2013-03-10 08:31:00,
2013-03-10 01:42:00,13.0,9.0,30.21,NW,323,0.0,3.0,82,0.00,,,0.00,,2013-03-10 08:42:00,
2013-03-10 01:52:00,13.0,9.0,30.21,NW,323,0.0,3.0,83,0.00,,,0.00,,2013-03-10 08:52:00,
2013-03-10 03:01:00,13.0,9.0,30.21,NW,323,0.0,0.0,83,0.00,,,0.00,,2013-03-10 09:01:00,
2013-03-10 03:11:00,13.0,9.0,30.21,NW,323,0.0,0.0,83,0.00,,,0.00,,2013-03-10 09:11:00,
2013-03-10 03:21:00,13.0,9.0,30.21,NW,323,0.0,0.0,83,0.00,,,0.00,,2013-03-10 09:21:00,
2013-03-10 03:31:00,13.0,9.0,30.20,NW,323,0.0,0.0,83,0.00,,,0.00,,2013-03-10 09:31:00,
2013-03-10 03:41:00,13.0,9.0,30.20,NW,323,0.0,0.0,83,0.00,,,0.00,,2013-03-10 09:41:00,
2013-03-10 03:52:00,12.0,8.0,30.20,NW,323,1.0,2.0,83,0.00,,,0.00,,2013-03-10 09:52:00,
2013-03-10 04:01:00,12.0,8.0,30.19,NW,323,2.0,3.0,83,0.00,,,0.00,,2013-03-10 10:01:00,
2013-03-10 04:11:00,12.0,8.0,30.19,NW,323,2.0,3.0,83,0.00,,,0.00,,2013-03-10 10:11:00,
2013-03-10 04:21:00,12.0,8.0,30.18,NW,323,1.0,3.0,83,0.00,,,0.00,,2013-03-10 10:21:00,
2013-03-10 04:32:00,12.0,8.0,30.18,NW,323,3.0,3.0,83,0.00,,,0.00,,2013-03-10 10:32:00,
2013-03-10 04:41:00,12.0,8.0,30.18,NW,323,2.0,3.0,83,0.00,,,0.00,,2013-03-10 10:41:00,
2013-03-10 04:52:00,12.0,8.0,30.18,NW,323,2.0,3.0,83,0.00,,,0.00,,2013-03-10 10:52:00,
2013-03-10 05:01:00,12.0,8.0,30.18,NW,323,2.0,3.0,83,0.00,,,0.00,,2013-03-10 11:01:00,
2013-03-10 05:12:00,12.0,8.0,30.18,NW,323,0.0,3.0,83,0.00,,,0.00,,2013-03-10 11:12:00,
2013-03-10 05:21:00,12.0,8.0,30.18,NW,323,0.0,3.0,83,0.00,,,0.00,,2013-03-10 11:21:00,
2013-03-10 05:31:00,12.0,8.0,30.18,NW,323,0.0,0.0,83,0.00,,,0.00,,2013-03-10 11:31:00,
2013-03-10 05:42:00,12.0,8.0,30.18,NW,323,0.0,0.0,83,0.00,,,0.00,,2013-03-10 11:42:00,
2013-03-10 05:52:00,11.0,7.0,30.19,NW,323,2.0,3.0,83,0.00,,,0.00,,2013-03-10 11:52:00,
2013-03-10 06:01:00,11.0,7.0,30.20,NW,323,1.0,2.0,83,0.00,,,0.00,,2013-03-10 12:01:00,
2013-03-10 06:11:00,11.0,7.0,30.20,NW,323,1.0,2.0,83,0.00,,,0.00,,2013-03-10 12:11:00,
2013-03-10 06:21:00,11.0,7.0,30.20,NW,323,0.0,2.0,83,0.00,,,0.00,,2013-03-10 12:21:00,
2013-03-10 06:31:00,11.0,7.0,30.20,NW,323,0.0,0.0,83,0.00,,,0.00,,2013-03-10 12:31:00,
2013-03-10 06:42:00,11.0,7.0,30.20,NW,323,0.0,0.0,83,0.00,,,0.00,,2013-03-10 12:42:00,
2013-03-10 06:52:00,11.0,7.0,30.19,NW,323,1.0,2.0,82,0.00,,,0.00,,2013-03-10 12:52:00,
2013-03-10 07:01:00,11.0,7.0,30.19,NW,323,3.0,3.0,82,0.00,,,0.00,,2013-03-10 13:01:00,
2013-03-10 07:11:00,11.0,7.0,30.19,NW,323,3.0,3.0,82,0.00,,,0.00,,2013-03-10 13:11:00,
2013-03-10 07:21:00,11.0,7.0,30.19,NW,323,2.0,3.0,82,0.00,,,0.00,,2013-03-10 13:21:00,
2013-03-10 07:31:00,11.0,7.0,30.19,NE,50,5.0,5.0,82,0.00,,,0.00,,2013-03-10 13:31:00,
2013-03-10 07:41:00,11.0,7.0,30.19,NE,50,5.0,5.0,82,0.00,,,0.00,,2013-03-10 13:41:00,
2013-03-10 07:52:00,11.0,7.0,30.19,NE,50,5.0,5.0,82,0.00,,,0.00,,2013-03-10 13:52:00,
2013-03-10 08:01:00,11.0,7.0,30.19,NE,50,5.0,5.0,82,0.00,,,0.00,,2013-03-10 14:01:00,
2013-03-10 08:11:00,11.0,7.0,30.19,NE,50,5.0,5.0,82,0.00,,,0.00,,2013-03-10 14:11:00,
2013-03-10 08:22:00,12.0,8.0,30.18,NE,56,3.0,6.0,82,0.00,,,0.00,,2013-03-10 14:22:00,
2013-03-10 08:32:00,12.0,8.0,30.18,NE,56,3.0,3.0,82,0.00,,,0.00,,2013-03-10 14:32:00,
2013-03-10 08:42:00,12.0,8.0,30.18,NE,56,3.0,3.0,82,0.00,,,0.00,,2013-03-10 14:42:00,
2013-03-10 08:52:00,13.0,9.0,30.18,ENE,58,5.0,6.0,82,0.00,,,0.00,,2013-03-10 14:52:00,
2013-03-10 09:01:00,13.0,9.0,30.18,ENE,58,5.0,6.0,82,0.00,,,0.00,,2013-03-10 15:01:00,
2013-03-10 09:11:00,13.0,9.0,30.18,ENE,58,5.0,6.0,82,0.00,,,0.00,,2013-03-10 15:11:00,
2013-03-10 09:21:00,17.0,13.0,30.18,ENE,78,5.0,9.0,83,0.00,,,0.00,,2013-03-10 15:21:00,
2013-03-10 09:32:00,17.0,13.0,30.18,ENE,78,5.0,9.0,83,0.00,,,0.00,,2013-03-10 15:32:00,
2013-03-10 09:42:00,17.0,13.0,30.18,ENE,78,5.0,9.0,83,0.00,,,0.00,,2013-03-10 15:42:00,
2013-03-10 09:52:00,18.0,14.0,30.17,East,85,9.0,12.0,83,0.00,,,0.00,,2013-03-10 15:52:00,
2013-03-10 10:01:00,18.0,14.0,30.16,East,84,11.0,12.0,84,0.00,,,0.00,,2013-03-10 16:01:00,
2013-03-10 10:12:00,18.0,14.0,30.16,East,84,11.0,12.0,84,0.00,,,0.00,,2013-03-10 16:12:00,
2013-03-10 10:21:00,18.0,14.0,30.16,East,84,11.0,12.0,84,0.00,,,0.00,,2013-03-10 16:21:00,
2013-03-10 10:31:00,20.0,16.0,30.16,ENE,69,10.0,12.0,85,0.00,,,0.00,,2013-03-10 16:31:00,
2013-03-10 10:41:00,20.0,16.0,30.16,ENE,69,10.0,12.0,85,0.00,,,0.00,,2013-03-10 16:41:00,
2013-03-10 10:52:00,21.0,17.0,30.16,East,91,8.0,12.0,84,0.00,,,0.00,,2013-03-10 16:52:00,
2013-03-10 11:01:00,21.0,17.0,30.16,East,91,8.0,12.0,84,0.00,,,0.00,,2013-03-10 17:01:00,
2013-03-10 11:11:00,21.0,17.0,30.16,East,91,8.0,12.0,84,0.00,,,0.00,,2013-03-10 17:11:00,
2013-03-10 11:21:00,21.0,17.0,30.16,East,91,8.0,12.0,84,0.00,,,0.00,,2013-03-10 17:21:00,
2013-03-10 11:31:00,25.0,19.0,30.15,ENE,71,11.0,12.0,79,0.00,,,0.00,,2013-03-10 17:31:00,
2013-03-10 11:41:00,25.0,19.0,30.15,ENE,71,11.0,12.0,79,0.00,,,0.00,,2013-03-10 17:41:00,
2013-03-10 11:51:00,27.0,20.0,30.14,ENE,71,9.0,13.0,76,0.00,,,0.00,,2013-03-10 17:51:00,
2013-03-10 12:01:00,27.0,20.0,30.14,ENE,71,9.0,13.0,76,0.00,,,0.00,,2013-03-10 18:01:00,
2013-03-10 12:11:00,27.0,20.0,30.14,ENE,71,9.0,13.0,76,0.00,,,0.00,,2013-03-10 18:11:00,
2013-03-10 12:21:00,27.0,20.0,30.14,ENE,71,9.0,13.0,76,0.00,,,0.00,,2013-03-10 18:21:00,
2013-03-10 12:32:00,29.0,20.0,30.12,East,86,8.0,12.0,69,0.00,,,0.00,,2013-03-10 18:32:00,
2013-03-10 12:42:00,29.0,20.0,30.12,East,86,8.0,12.0,69,0.00,,,0.00,,2013-03-10 18:42:00,
2013-03-10 12:52:00,32.0,22.0,30.10,ESE,110,10.0,12.0,66,0.00,,,0.00,,2013-03-10 18:52:00,
2013-03-10 13:01:00,31.0,21.0,30.10,East,101,9.0,12.0,67,0.00,,,0.00,,2013-03-10 19:01:00,
2013-03-10 13:11:00,31.0,21.0,30.10,East,101,9.0,12.0,67,0.00,,,0.00,,2013-03-10 19:11:00,
2013-03-10 13:21:00,32.0,23.0,30.10,ESE,115,9.0,13.0,68,0.00,,,0.00,,2013-03-10 19:21:00,
2013-03-10 13:31:00,32.0,22.0,30.10,East,84,8.0,12.0,67,0.00,,,0.00,,2013-03-10 19:31:00,
2013-03-10 13:42:00,32.0,22.0,30.10,East,84,8.0,12.0,67,0.00,,,0.00,,2013-03-10 19:42:00,
2013-03-10 13:53:00,33.0,24.0,30.08,East,82,9.0,13.0,68,0.00,,,0.00,,2013-03-10 19:53:00,
2013-03-10 14:02:00,33.0,24.0,30.08,East,81,9.0,12.0,68,0.00,,,0.00,,2013-03-10 20:02:00,
2013-03-10 14:12:00,33.0,24.0,30.08,East,81,9.0,12.0,68,0.00,,,0.00,,2013-03-10 20:12:00,
2013-03-10 14:32:00,35.0,26.0,30.08,East,80,11.0,13.0,68,0.00,,,0.00,,2013-03-10 20:32:00,
2013-03-10 14:42:00,35.0,26.0,30.08,East,80,11.0,13.0,68,0.00,,,0.00,,2013-03-10 20:42:00,
2013-03-10 14:53:00,35.0,26.0,30.03,East,93,9.0,13.0,69,0.00,,,0.00,,2013-03-10 20:53:00,
2013-03-10 15:02:00,35.0,26.0,30.03,East,86,9.0,12.0,69,0.00,,,0.00,,2013-03-10 21:02:00,
2013-03-10 15:12:00,35.0,26.0,30.03,East,86,9.0,12.0,69,0.00,,,0.00,,2013-03-10 21:12:00,
2013-03-10 15:22:00,35.0,26.0,30.03,East,89,8.0,13.0,69,0.00,,,0.00,,2013-03-10 21:22:00,
2013-03-10 15:32:00,35.0,26.0,30.02,East,90,7.0,10.0,69,0.00,,,0.00,,2013-03-10 21:32:00,
2013-03-10 15:42:00,35.0,26.0,30.02,East,90,7.0,10.0,69,0.00,,,0.00,,2013-03-10 21:42:00,
2013-03-10 15:53:00,36.0,27.0,30.01,East,79,9.0,12.0,69,0.00,,,0.00,,2013-03-10 21:53:00,
2013-03-10 16:02:00,35.0,26.0,30.00,ENE,76,9.0,12.0,70,0.00,,,0.00,,2013-03-10 22:02:00,
2013-03-10 16:12:00,35.0,26.0,30.00,ENE,76,9.0,12.0,70,0.00,,,0.00,,2013-03-10 22:12:00,
2013-03-10 16:22:00,35.0,26.0,30.00,ENE,76,9.0,12.0,70,0.00,,,0.00,,2013-03-10 22:22:00,
2013-03-10 16:32:00,35.0,27.0,29.99,ENE,66,9.0,12.0,72,0.00,,,0.00,,2013-03-10 22:32:00,
2013-03-10 16:42:00,35.0,27.0,29.99,ENE,66,9.0,12.0,72,0.00,,,0.00,,2013-03-10 22:42:00,
2013-03-10 16:53:00,35.0,27.0,29.98,ENE,72,10.0,12.0,72,0.00,,,0.00,,2013-03-10 22:53:00,
2013-03-10 17:03:00,35.0,27.0,29.98,ENE,78,10.0,12.0,73,0.00,,,0.00,,2013-03-10 23:03:00,
2013-03-10 17:12:00,35.0,27.0,29.98,ENE,78,10.0,12.0,73,0.00,,,0.00,,2013-03-10 23:12:00,
2013-03-10 17:22:00,35.0,27.0,29.98,ENE,78,10.0,12.0,73,0.00,,,0.00,,2013-03-10 23:22:00,
2013-03-10 17:32:00,35.0,27.0,29.96,East,87,9.0,12.0,73,0.00,,,0.00,,2013-03-10 23:32:00,
2013-03-10 17:42:00,35.0,27.0,29.96,East,87,9.0,12.0,73,0.00,,,0.00,,2013-03-10 23:42:00,
2013-03-10 17:52:00,34.0,26.0,29.96,East,82,6.0,12.0,73,0.00,,,0.00,,2013-03-10 23:52:00,
2013-03-10 18:02:00,34.0,27.0,29.95,East,85,6.0,8.0,74,0.00,,,0.00,,2013-03-11 00:02:00,
2013-03-10 18:12:00,34.0,27.0,29.95,East,85,6.0,8.0,74,0.00,,,0.00,,2013-03-11 00:12:00,
2013-03-10 18:22:00,34.0,27.0,29.95,ENE,75,6.0,10.0,76,0.00,,,0.00,,2013-03-11 00:22:00,
2013-03-10 18:33:00,34.0,27.0,29.95,ENE,75,6.0,10.0,76,0.00,,,0.00,,2013-03-11 00:33:00,
2013-03-10 18:43:00,34.0,27.0,29.95,ENE,75,6.0,10.0,76,0.00,,,0.00,,2013-03-11 00:43:00,
2013-03-10 18:53:00,32.0,26.0,29.93,East,84,9.0,12.0,77,0.00,,,0.00,,2013-03-11 00:53:00,
2013-03-10 19:02:00,32.0,26.0,29.93,East,84,9.0,12.0,77,0.00,,,0.00,,2013-03-11 01:02:00,
2013-03-10 19:13:00,32.0,26.0,29.93,East,84,9.0,12.0,77,0.00,,,0.00,,2013-03-11 01:13:00,
2013-03-10 19:22:00,32.0,27.0,29.93,ENE,64,8.0,12.0,80,0.00,,,0.00,,2013-03-11 01:22:00,
2013-03-10 19:32:00,32.0,27.0,29.93,ENE,65,9.0,12.0,81,0.00,,,0.00,,2013-03-11 01:32:00,
2013-03-10 19:43:00,32.0,27.0,29.93,ENE,65,9.0,12.0,81,0.00,,,0.00,,2013-03-11 01:43:00,
2013-03-10 19:53:00,31.0,26.0,29.92,East,87,10.0,13.0,81,0.00,,,0.00,,2013-03-11 01:53:00,
2013-03-10 20:02:00,31.0,26.0,29.91,East,99,12.0,14.0,81,0.00,,,0.00,,2013-03-11 02:02:00,
2013-03-10 20:12:00,31.0,26.0,29.91,East,99,12.0,14.0,81,0.00,,,0.00,,2013-03-11 02:12:00,
2013-03-10 20:22:00,30.0,25.0,29.91,East,88,11.0,15.0,82,0.00,,,0.00,,2013-03-11 02:22:00,
2013-03-10 20:32:00,30.0,25.0,29.90,East,80,7.0,13.0,82,0.00,,,0.00,,2013-03-11 02:32:00,
2013-03-10 20:42:00,30.0,25.0,29.90,East,80,7.0,13.0,82,0.00,,,0.00,,2013-03-11 02:42:00,
2013-03-10 20:52:00,30.0,25.0,29.90,East,80,7.0,13.0,82,0.00,,,0.00,,2013-03-11 02:52:00,
2013-03-10 21:02:00,30.0,26.0,29.90,East,80,8.0,14.0,84,0.00,,,0.00,,2013-03-11 03:02:00,
2013-03-10 21:12:00,30.0,26.0,29.90,East,80,8.0,14.0,84,0.00,,,0.00,,2013-03-11 03:12:00,
2013-03-10 21:22:00,29.0,25.0,29.88,ENE,75,9.0,14.0,84,0.00,,,0.00,,2013-03-11 03:22:00,
2013-03-10 21:32:00,29.0,25.0,29.88,ENE,78,9.0,12.0,84,0.00,,,0.00,,2013-03-11 03:32:00,
2013-03-10 21:42:00,29.0,25.0,29.88,ENE,78,9.0,12.0,84,0.00,,,0.00,,2013-03-11 03:42:00,
2013-03-10 21:53:00,29.0,25.0,29.88,ENE,75,6.0,12.0,85,0.00,,,0.00,,2013-03-11 03:53:00,
2013-03-10 22:02:00,29.0,25.0,29.88,ENE,75,6.0,12.0,85,0.00,,,0.00,,2013-03-11 04:02:00,
2013-03-10 22:12:00,29.0,25.0,29.88,ENE,75,6.0,12.0,85,0.00,,,0.00,,2013-03-11 04:12:00,
2013-03-10 22:22:00,29.0,25.0,29.88,ENE,75,6.0,12.0,85,0.00,,,0.00,,2013-03-11 04:22:00,
2013-03-10 22:32:00,29.0,25.0,29.86,ENE,78,6.0,9.0,86,0.00,,,0.00,,2013-03-11 04:32:00,
2013-03-10 22:43:00,29.0,25.0,29.86,ENE,78,6.0,9.0,86,0.00,,,0.00,,2013-03-11 04:43:00,
2013-03-10 22:53:00,29.0,25.0,29.86,East,82,3.0,7.0,86,0.00,,,0.00,,2013-03-11 04:53:00,
2013-03-10 23:03:00,29.0,25.0,29.86,East,80,2.0,5.0,86,0.00,,,0.00,,2013-03-11 05:03:00,
2013-03-10 23:12:00,29.0,25.0,29.86,East,80,2.0,5.0,86,0.00,,,0.00,,2013-03-11 05:12:00,
2013-03-10 23:22:00,29.0,25.0,29.86,East,80,2.0,5.0,86,0.00,,,0.00,,2013-03-11 05:22:00,
2013-03-10 23:32:00,29.0,25.0,29.86,East,80,2.0,5.0,86,0.00,,,0.00,,2013-03-11 05:32:00,
2013-03-10 23:42:00,29.0,25.0,29.86,East,80,2.0,5.0,86,0.00,,,0.00,,2013-03-11 05:42:00,
2013-03-10 23:52:00,28.0,24.0,29.84,East,81,1.0,2.0,86,0.00,,,0.00,,2013-03-11 05:52:00,